Miscellaneous Local Product
Issued by NWS North Platte, NE

Home | Current Version | Previous Version | Text Only | Print | Product List | Glossary On
Versions: 1 2 3 4 5 6 7 8 9 10 11 12 13 14 15 16 17 18 19 20 21 22 23 24 25 26 27 28 29 30 31 32 33 34 35 36 37 38 39 40 41 42 43 44 45 46 47 48 49 50
497
AXUS43 KLBF 241410
MISLBF


WESTERN AND NORTH CENTRAL NEBRASKA HOURLY WEATHER ROUNDUP
NATIONAL WEATHER SERVICE NORTH PLATTE NE
900 AM CDT TUE MAY 24 2016

NOTE: "FAIR" INDICATES FEW OR NO CLOUDS BELOW 12,000 FEET WITH NO
SIGNIFICANT WEATHER AND/OR OBSTRUCTIONS TO VISIBILITY.

NOTE: STATIONS NOT REPORTING VARIABLES SUCH AS SKY/WEATHER OR
PRESSURE ARE PROVIDED BY RAWS AND APRS NETWORKS AND ARE NOT UNDER
NATIONAL WEATHER SERVICE QUALITY CONTROL.

...OBSERVATIONS IN AND NEAR THE EASTERN PANHANDLE OF NEBRASKA...

CITY           SKY/WX    TMP DP  RH WIND       PRES   REMARKS
PINE RIDGE     SUNNY     53  40  61 CALM      29.92R
CHADRON        SUNNY     55  42  61 NW5       29.92R
ALLIANCE       SUNNY     52  46  80 NW5       29.93R
SIDNEY         SUNNY     59  41  51 CALM      29.95S
CRESCENT LAKE    N/A     57  49  76 CALM        N/A
BIG SPRINGS      N/A     49  45  85 SW5         N/A
$$

...OBSERVATIONS IN NORTHERN NEBRASKA AND FAR SOUTHERN SOUTH DAKOTA...

CITY           SKY/WX    TMP DP  RH WIND       PRES   REMARKS
WINNER         FAIR      62  48  60 SW6       29.87S
VALENTINE      SUNNY     58  46  64 S3        29.89S
THEDFORD       SUNNY     61  51  70 CALM      29.91S
AINSWORTH      SUNNY     62  49  62 W3        29.90S
O`NEILL        MOSUNNY   62  51  67 SW3       29.88S
ORD            MOSUNNY   60  53  77 N6        29.86F
BROKEN BOW     SUNNY     67  49  52 CALM      29.87S
BUTTE            N/A     63  51  66 SW6         N/A
CHAMBERS         N/A     71  56  59 S3          N/A
EWING            N/A     64  55  73 CALM        N/A
$$

...OBSERVATIONS IN SOUTHWEST NEBRASKA AND FAR NORTHEAST COLORADO...

CITY           SKY/WX    TMP DP  RH WIND       PRES   REMARKS
WRAY           CLOUDY    59  54  82 NW6       29.95R
HOLYOKE        FAIR      59  50  72 CALM      29.94F
IMPERIAL       CLOUDY    60  52  74 NW6       29.93R
OGALLALA       CLOUDY    53  45  73 CALM      29.93S
NORTH PLATTE   CLOUDY    63  49  60 CALM      29.91R
MCCOOK         SUNNY     67  58  72 S16G25    29.89R
LEXINGTON      MOSUNNY   62  54  74 SE5       29.88R
PAXTON           N/A     53  49  86 CALM        N/A
STAPLETON        N/A     60  52  74 CALM        N/A
GOTHENBURG       N/A     62  47  59 CALM        N/A
CALLAWAY         N/A     61  49  63 E3          N/A
$$

...OBSERVATIONS IN CENTRAL LINCOLN COUNTY AREA...

CITY           SKY/WX    TMP DP  RH WIND       PRES   REMARKS
N.P. AIRPORT   CLOUDY    63  49  60 CALM      29.91R
N.P. DOWNTOWN    N/A     65  50  58 CALM        N/A
N.P. SOUTHEAST   N/A     64  49  58 CALM        N/A
N.P. HILLCREST   N/A     62  51  68 W3          N/A
$$

...SOME OBSERVATIONS FROM AROUND THE REGION...

CITY           SKY/WX    TMP DP  RH WIND       PRES   REMARKS
DENVER         MOSUNNY   54  45  71 SE6       29.98R
LARAMIE        SUNNY     43  35  73 S7        29.98S
CHEYENNE       CLOUDY    49  41  74 CALM      29.97S
SCOTTSBLUFF    SUNNY     51  44  77 CALM      29.94R
RAPID CITY     SUNNY     59  36  42 N9        29.92R
BISMARCK       SUNNY     59  45  59 SW5       29.87R
PIERRE         SUNNY     59  49  69 E10       29.85R
SIOUX FALLS    CLOUDY    65  61  87 SW8       29.85S
OMAHA          CLOUDY    65  62  90 SE6       29.89F
GRAND ISLAND   CLOUDY    64  62  93 S7        29.88F
KANSAS CITY    CLOUDY    66  63  90 SW8       29.94R
WICHITA        CLOUDY    68  64  87 NE14      29.95R
OKLAHOMA CITY  MOSUNNY   74  67  78 S16G26    29.88R
DALLAS         CLOUDY    75  71  87 SE7       29.96R FOG
AMARILLO       MOSUNNY   69  63  81 S26G32    29.90S
DODGE CITY     LGT RAIN  67  66  97 E17       29.90S FOG
HAYS           CLOUDY    61  52  72 SE15      29.92F
GOODLAND       MOSUNNY   60  54  80 E16G22    29.92S
$$




USA.gov is the U.S. government's official web portal to all federal, state and local government web resources and services.